EN

Hourly Weather Abbakumovo

Today, 20 June, Sunday

Time Temperature Precipitation Wind Pressure Humidity
00:00 +18°C° 0 mm 2 mps 747 mmHg 83%
01:00 +18°C° 0 mm 1 mps 747 mmHg 86%
02:00 +18°C° 0 mm 1 mps 747 mmHg 89%
03:00 +18°C° 0 mm 1 mps 747 mmHg 87%
04:00 +19°C° 0 mm 1 mps 747 mmHg 86%
05:00 +20°C° 0 mm 1 mps 747 mmHg 84%
06:00 +22°C° 0 mm 1 mps 747 mmHg 77%
07:00 +24°C° 0 mm 1 mps 747 mmHg 69%
08:00 +26°C° 0 mm 2 mps 747 mmHg 61%
09:00 +27°C° 0 mm 2 mps 747 mmHg 56%
10:00 +29°C° 0 mm 2 mps 747 mmHg 51%
11:00 +30°C° 0 mm 2 mps 747 mmHg 46%
12:00 +30°C° 0 mm 2 mps 746 mmHg 44%
13:00 +31°C° 0 mm 2 mps 746 mmHg 42%
14:00 +32°C° 0 mm 2 mps 746 mmHg 40%
15:00 +32°C° 0 mm 2 mps 745 mmHg 41%
16:00 +32°C° 0 mm 2 mps 745 mmHg 43%
17:00 +32°C° 0 mm 2 mps 745 mmHg 44%
18:00 +30°C° 0 mm 2 mps 745 mmHg 54%
19:00 +27°C° 0 mm 1 mps 745 mmHg 63%
20:00 +25°C° 0 mm 1 mps 745 mmHg 72%
21:00 +25°C° 0 mm 1 mps 745 mmHg 75%
22:00 +24°C° 0 mm 1 mps 745 mmHg 77%
23:00 +24°C° 0 mm 1 mps 745 mmHg 79%

Tomorrow, 21 June, Monday

Time Temperature Precipitation Wind Pressure Humidity
00:00 +23°C° 0 mm 1 mps 745 mmHg 81%
01:00 +23°C° 0 mm 2 mps 745 mmHg 83%
02:00 +21°C° 0 mm 2 mps 745 mmHg 84%
03:00 +22°C° 0 mm 1 mps 745 mmHg 85%
04:00 +22°C° 0 mm 1 mps 745 mmHg 85%
05:00 +22°C° 0 mm 1 mps 746 mmHg 85%
06:00 +24°C° 0 mm 1 mps 746 mmHg 77%
07:00 +26°C° 0 mm 1 mps 746 mmHg 69%
08:00 +28°C° 0 mm 1 mps 746 mmHg 61%
09:00 +29°C° 0 mm 2 mps 746 mmHg 56%
10:00 +30°C° 0 mm 2 mps 746 mmHg 51%
11:00 +31°C° 0 mm 2 mps 745 mmHg 46%
12:00 +31°C° 0 mm 3 mps 745 mmHg 45%
13:00 +33°C° 0 mm 3 mps 745 mmHg 43%
14:00 +33°C° 0 mm 3 mps 745 mmHg 41%
15:00 +31°C° 0 mm 3 mps 745 mmHg 45%
16:00 +30°C° 0 mm 3 mps 745 mmHg 50%
17:00 +29°C° 0 mm 3 mps 745 mmHg 54%
18:00 +27°C° 0 mm 3 mps 745 mmHg 62%
19:00 +25°C° 0 mm 2 mps 745 mmHg 70%
20:00 +23°C° 0 mm 2 mps 745 mmHg 79%
21:00 +21°C° 0 mm 2 mps 745 mmHg 82%
22:00 +20°C° 0 mm 2 mps 745 mmHg 85%
23:00 +19°C° 0 mm 2 mps 745 mmHg 88%

Day after tomorrow, 22 June, Tuesday

Time Temperature Precipitation Wind Pressure Humidity
00:00 +19°C° 0 mm 2 mps 745 mmHg 90%
01:00 +18°C° 0 mm 2 mps 745 mmHg 91%
02:00 +18°C° 0 mm 2 mps 745 mmHg 93%
03:00 +20°C° 0 mm 1 mps 745 mmHg 91%
04:00 +20°C° 0 mm 1 mps 745 mmHg 89%
05:00 +21°C° 0 mm 1 mps 745 mmHg 86%
06:00 +23°C° 0 mm 2 mps 745 mmHg 78%
07:00 +25°C° 0 mm 2 mps 745 mmHg 70%
08:00 +27°C° 0 mm 3 mps 745 mmHg 61%
09:00 +29°C° 0 mm 3 mps 745 mmHg 54%
10:00 +30°C° 0 mm 3 mps 745 mmHg 47%
11:00 +32°C° 0 mm 4 mps 745 mmHg 41%
12:00 +33°C° 0 mm 4 mps 745 mmHg 38%
13:00 +33°C° 0 mm 4 mps 745 mmHg 35%
14:00 +34°C° 0 mm 4 mps 745 mmHg 33%
15:00 +34°C° 0 mm 4 mps 745 mmHg 36%
16:00 +33°C° 0 mm 3 mps 744 mmHg 39%
17:00 +33°C° 0 mm 3 mps 744 mmHg 42%
18:00 +30°C° 0 mm 3 mps 744 mmHg 52%
19:00 +27°C° 0 mm 3 mps 744 mmHg 63%
20:00 +25°C° 0 mm 2 mps 744 mmHg 73%
21:00 +24°C° 0 mm 2 mps 744 mmHg 76%
22:00 +23°C° 0 mm 2 mps 745 mmHg 79%
23:00 +23°C° 0 mm 2 mps 745 mmHg 82%

23 June, Wednesday

Time Temperature Precipitation Wind Pressure Humidity
00:00 +21°C° 0 mm 2 mps 745 mmHg 86%
01:00 +20°C° 0 mm 2 mps 745 mmHg 90%
02:00 +20°C° 0 mm 2 mps 745 mmHg 93%
03:00 +21°C° 0 mm 2 mps 745 mmHg 91%
04:00 +21°C° 0 mm 2 mps 745 mmHg 88%
05:00 +23°C° 0 mm 1 mps 745 mmHg 86%
06:00 +25°C° 0 mm 2 mps 746 mmHg 77%
07:00 +27°C° 0 mm 2 mps 746 mmHg 67%
08:00 +29°C° 0 mm 2 mps 746 mmHg 58%
09:00 +30°C° 0 mm 3 mps 746 mmHg 50%
10:00 +33°C° 0 mm 3 mps 746 mmHg 43%
11:00 +34°C° 0 mm 3 mps 746 mmHg 35%
12:00 +35°C° 0 mm 3 mps 746 mmHg 34%
13:00 +35°C° 0 mm 3 mps 746 mmHg 32%
14:00 +36°C° 0 mm 4 mps 745 mmHg 31%
15:00 +35°C° 0 mm 3 mps 745 mmHg 33%
16:00 +35°C° 0 mm 3 mps 745 mmHg 36%
17:00 +35°C° 0 mm 3 mps 745 mmHg 39%
18:00 +31°C° 0 mm 3 mps 745 mmHg 49%
19:00 +29°C° 0 mm 2 mps 745 mmHg 60%
20:00 +26°C° 0 mm 2 mps 745 mmHg 71%
21:00 +26°C° 0 mm 2 mps 745 mmHg 73%
22:00 +25°C° 0 mm 2 mps 745 mmHg 75%
23:00 +24°C° 0 mm 2 mps 745 mmHg 77%

24 June, Thursday

Time Temperature Precipitation Wind Pressure Humidity
00:00 +23°C° 0 mm 2 mps 745 mmHg 79%
01:00 +23°C° 0 mm 2 mps 745 mmHg 81%
02:00 +21°C° 0 mm 2 mps 745 mmHg 83%
03:00 +22°C° 0 mm 1 mps 745 mmHg 82%
04:00 +23°C° 0 mm 1 mps 745 mmHg 82%
05:00 +23°C° 0 mm 1 mps 745 mmHg 81%
06:00 +25°C° 0 mm 2 mps 745 mmHg 72%
07:00 +27°C° 0 mm 2 mps 745 mmHg 63%
08:00 +29°C° 0 mm 3 mps 745 mmHg 54%
09:00 +31°C° 0 mm 3 mps 745 mmHg 48%
10:00 +33°C° 0 mm 3 mps 745 mmHg 42%
11:00 +34°C° 0 mm 4 mps 744 mmHg 36%
12:00 +35°C° 0 mm 4 mps 744 mmHg 34%
13:00 +35°C° 0 mm 3 mps 744 mmHg 32%
14:00 +36°C° 0 mm 3 mps 744 mmHg 31%
15:00 +35°C° 0 mm 3 mps 743 mmHg 34%
16:00 +35°C° 0 mm 3 mps 743 mmHg 36%
17:00 +34°C° 0 mm 3 mps 742 mmHg 39%
18:00 +30°C° 0.2 mm 3 mps 742 mmHg 50%
19:00 +27°C° 0.2 mm 3 mps 742 mmHg 61%
20:00 +25°C° 0.2 mm 3 mps 742 mmHg 72%
21:00 +23°C° 0.3 mm 2 mps 742 mmHg 79%
22:00 +21°C° 0.3 mm 2 mps 742 mmHg 87%
23:00 +20°C° 0.3 mm 1 mps 742 mmHg 94%

25 June, Friday

Time Temperature Precipitation Wind Pressure Humidity
00:00 +20°C° 0.2 mm 1 mps 742 mmHg 95%
01:00 +19°C° 0.2 mm 2 mps 742 mmHg 95%
02:00 +18°C° 0.2 mm 2 mps 742 mmHg 96%
03:00 +19°C° 0 mm 2 mps 742 mmHg 95%
04:00 +19°C° 0 mm 2 mps 742 mmHg 94%
05:00 +21°C° 0 mm 1 mps 742 mmHg 94%
06:00 +23°C° 0 mm 2 mps 742 mmHg 85%
07:00 +25°C° 0 mm 2 mps 742 mmHg 76%
08:00 +27°C° 0 mm 2 mps 742 mmHg 67%
09:00 +29°C° 0 mm 2 mps 742 mmHg 60%
10:00 +30°C° 0 mm 2 mps 741 mmHg 53%
11:00 +32°C° 0 mm 2 mps 741 mmHg 46%
12:00 +34°C° 0 mm 2 mps 741 mmHg 43%
13:00 +34°C° 0 mm 2 mps 741 mmHg 39%
14:00 +35°C° 0 mm 2 mps 741 mmHg 36%
15:00 +31°C° 1.1 mm 3 mps 740 mmHg 51%
16:00 +27°C° 1.1 mm 4 mps 740 mmHg 67%
17:00 +23°C° 1.1 mm 4 mps 740 mmHg 83%
18:00 +22°C° 2.4 mm 4 mps 740 mmHg 86%
19:00 +21°C° 2.4 mm 3 mps 740 mmHg 90%
20:00 +19°C° 2.4 mm 2 mps 740 mmHg 93%
21:00 +19°C° 0.2 mm 2 mps 740 mmHg 93%
22:00 +19°C° 0.2 mm 2 mps 739 mmHg 94%
23:00 +18°C° 0.2 mm 2 mps 739 mmHg 94%
Show more